Location: Oshawa
(43.9000°N, 78.8670°W)
Time: 17:26:47
(UTC-04:00)

CARTOSAT-1 - Visible Passes

Search period start: 03 September 2015 00:00
Search period end: 13 September 2015 00:00
Orbit: 616 x 620 km, 97.9° (Epoch: 02 September)

Date Brightness Start Highest point End Pass type
(mag) Time Alt. Az. Time Alt. Az. Time Alt. Az.
03 Sep 5.1 22:29:10 27° NNE 22:29:10 27° NNE 22:31:33 10° N visible
04 Sep 6.4 00:06:17 14° NW 00:06:17 14° NW 00:07:07 10° NW visible
04 Sep 5.2 22:46:15 29° N 22:46:15 29° N 22:48:32 10° N visible
05 Sep 5.4 23:03:20 28° N 23:03:20 28° N 23:05:23 10° N visible
06 Sep 5.8 21:43:16 13° NE 21:43:16 13° NE 21:44:24 10° NNE visible
06 Sep 5.8 23:20:25 23° NNW 23:20:25 23° NNW 23:22:08 10° NNW visible
07 Sep 5.6 22:00:21 16° NE 22:00:21 16° NE 22:01:57 10° NNE visible
07 Sep 6.1 23:37:30 18° NW 23:37:30 18° NW 23:38:48 10° NNW visible
08 Sep 5.5 22:17:26 20° NNE 22:17:26 20° NNE 22:19:11 10° N visible
08 Sep 6.5 23:54:34 14° NW 23:54:34 14° NW 23:55:18 10° NW visible
09 Sep 5.5 22:34:31 22° NNE 22:34:31 22° NNE 22:36:15 10° N visible
10 Sep 5.7 22:51:36 22° N 22:51:36 22° N 22:53:10 10° N visible
11 Sep 6.0 23:08:41 20° NNW 23:08:41 20° NNW 23:10:00 10° NNW visible
12 Sep 6.0 21:48:37 12° NE 21:48:37 12° NE 21:49:16 10° NNE visible
12 Sep 6.3 23:25:46 16° NNW 23:25:46 16° NNW 23:26:43 10° NNW visible
